COSMOS 1799

Satellite information

Favourite Embed

Satellite Type and Status

PAYLOADIN ORBIT

Key statistics

Satellite COSMOS 1799 at a glance.

Uptime

14267

Days in orbit

Revolutions

≈ 12.6

Per day

Orbit

LEO

Low Earth Orbit

Inclination

74.0

Latest

Satellite identification and parameters

Extended collection of information and parameters for COSMOS 1799.

Object identification

Identified? True

Debris? False

Object name: COSMOS 1799

International designator: 1986-092F

Object number (NORAD): 17143

Object ID (CCSDS): 17143

Country: COMMONWEALTH OF INDEPENDENT STATES (CIS)

Current information (Y/N): Y

RCS size: MEDIUM

Orbital parameters

Period: 114.716 minutes

Inclination: 74.0154 deg

SMA: 7820.645 km

Apoapsis: 1470.986 km

Periapsis: 1414.033 km

RAAN: 17.881 deg

Eccentricy: 0.00364121

Argument of periapsis: 83.4917 deg

Mean anomaly: 357.6796 deg

Mean motion: 12.5527513 rev/day

Mean motion (dot): -0.00000013 rev/day2

B* drag term: 0.00002114788 1/REarth

Two-line elements (TLE)

Creation date: Dec. 12, 2025, 10:14 a.m.

Reference frame: TEME

Reference center: EARTH

Epoch: Dec. 12, 2025, 6:51 a.m. UTC

TLE line 0: 0 COSMOS 1799

TLE line 1: 1 17143U 86092F 25346.28579449 -.00000013 00000-0 21148-4 0 9994

TLE line 2: 2 17143 74.0154 17.8810 0036412 83.4917 357.6796 12.55275130789808

Live tracking on map

Real-time ground track for satellite COSMOS 1799.

In-orbit conjunctions

There are no conjunctions computed for COSMOS 1799, at the moment. Check back to stay up to date, as we update our databases every day.

Go to all conjunctions

Associated space launch

Military communications satellites

COSMOS 1799 was lifted into orbit during the mission ‘Kosmos-3M | Strela-1M 313-320’, on board a Kosmos-3M space rocket.

The launch took place on Nov. 21, 1986, 2 a.m. from 132/2.

For more information about the launch, click the button.

Launch to space Kosmos-3M | Strela-1M 313-320
Kosmos-3M | Strela-1M 313-320

Agency: N/A

Status: Launch Successful

Launch date: Nov. 21, 1986, 2 a.m. UTC

Rocket: Kosmos-3M

Launch pad: 132/2

Location: Plesetsk Cosmodrome, Russian Federation

...

Latest news about this satellite

There are no fresh news available about this satellite. Check back as we update our databases every day.


Newsletter sign-up

Weekly statistics, charts and insights to help you stay on top of the space industry.